Location: Gugi
(45.4667°N, 11.1000°E)
Time: 07:32:47
(UTC+00:00)

Cosmos 2263 Rocket - Visible Passes

Search period start: 21 January 2021 00:00
Search period end: 31 January 2021 00:00
Orbit: 823 x 849 km, 71.0° (Epoch: 20 January)

Date Brightness Start Highest point End Pass type
(mag) Time Alt. Az. Time Alt. Az. Time Alt. Az.
21 Jan 3.0 16:59:20 10° SW 17:04:51 50° WNW 17:10:23 10° NNE visible
21 Jan 4.8 18:48:14 10° WNW 18:50:13 12° NW 18:52:12 10° NNW visible
22 Jan 2.9 16:42:30 10° SW 16:48:03 54° WNW 16:53:38 10° NNE visible
22 Jan 4.7 18:31:00 10° WNW 18:33:20 12° NW 18:35:40 10° NNW visible
23 Jan 4.7 18:13:49 10° WNW 18:16:27 13° NW 18:19:06 10° N visible
24 Jan 4.6 17:56:41 10° WNW 17:59:35 14° NW 18:02:29 10° N visible
25 Jan 4.6 17:39:34 10° WNW 17:42:43 15° NW 17:45:52 10° N visible
26 Jan 4.5 17:22:29 10° WNW 17:25:52 16° NW 17:29:14 10° N visible
27 Jan 4.5 17:05:26 10° W 17:09:00 17° NW 17:12:35 10° N visible
28 Jan 4.5 16:48:23 10° W 16:52:08 18° NW 16:55:54 10° N visible
